Wind_Speed
4 4 3 3 3 2 2 3 2 2 2 1 1 0 0 1 2 2 2 3 4 5 5 6 6 6 6 6 6 7 7 7 8 8 8 9 9 10 10 10 9 9 10
4 3 2 2 3 2 2 1 1 1 1 0 0 0 1 2 2 3 3 4 5 5 5 6 6 6 6 7 7 7 8 8 9 10 10 10 10 10 10 11 11 11 11
4 3 3 2 2 1 1 1 1 2 1 1 1 1 1 2 3 4 5 5 6 6 6 7 7 7 7 8 8 9 9 9 10 11 12 12 12 11 11 11 12 13 13
4 3 3 2 2 1 1 1 1 1 1 2 2 2 3 3 4 5 5 6 6 6 7 7 7 7 8 8 9 10 10 10 11 11 12 12 12 12 12 12 12 13 14
4 4 3 4 4 3 2 2 2 2 2 2 3 3 3 4 5 5 6 7 7 7 7 8 8 8 9 9 10 11 11 11 11 11 11 11 12 12 13 13 13 14 14
5 5 5 5 4 4 3 3 3 2 3 3 3 4 4 5 5 6 6 7 8 8 9 9 9 10 10 10 11 12 12 12 12 11 11 11 12 12 14 14 14 14 14
5 5 5 4 4 4 4 4 3 4 3 4 4 4 4 5 6 6 7 8 8 8 9 9 10 11 11 11 12 12 13 13 13 12 12 12 12 13 13 13 14 14 14
4 5 5 4 4 4 4 4 4 4 5 5 5 5 6 7 7 7 7 8 8 9 9 10 11 11 12 12 13 12 13 13 13 14 14 13 13 13 13 14 14 15 15
6 5 5 4 5 5 5 6 6 6 6 7 7 7 7 8 8 8 8 8 9 9 10 10 10 11 12 13 13 13 13 13 13 13 14 14 14 14 14 14 15 16 16
7 6 5 5 5 5 6 7 7 8 8 8 8 8 8 8 8 9 9 9 10 10 10 11 11 12 13 13 13 13 13 13 13 13 13 14 14 15 15 15 16 16 16
6 6 6 6 6 7 7 7 8 8 9 9 9 9 9 9 9 10 10 10 11 11 12 12 13 13 13 13 13 14 14 14 13 13 13 14 15 16 17 17 17 17 16
7 7 7 7 8 9 9 9 9 9 9 9 10 10 10 10 10 11 11 12 12 13 12 13 13 13 14 14 14 15 15 14 13 13 13 14 15 16 17 17 18 17 17
8 8 8 8 9 10 10 10 10 10 10 10 10 11 11 11 11 12 12 13 13 13 13 13 13 13 13 14 14 15 15 14 14 14 14 15 16 16 17 17 18 19 19
9 9 9 9 10 11 11 11 11 12 11 11 11 11 11 12 12 12 12 12 12 12 12 13 14 14 14 15 15 15 15 15 15 15 16 16 16 17 17 18 19 19 20
10 10 10 11 11 12 12 12 12 12 12 12 12 12 12 12 12 12 12 12 12 13 14 14 14 15 15 15 14 14 15 15 15 16 16 17 17 17 17 18 19 20 20
11 11 11 12 12 12 12 13 13 13 13 13 13 13 13 12 12 13 13 14 14 14 14 15 15 15 15 16 15 15 15 16 16 16 16 16 16 17 18 19 19 19 20
11 12 12 13 13 13 13 13 13 14 14 14 14 14 14 13 14 14 15 15 15 16 15 16 16 16 16 17 16 16 16 17 17 17 17 17 17 17 17 19 20 21 21
13 13 13 14 14 14 14 14 14 14 14 14 15 15 15 15 15 16 16 16 17 18 18 17 17 18 18 18 17 17 18 17 17 18 18 18 18 18 18 19 20 21 21
14 14 15 15 15 15 16 16 16 16 16 16 17 17 17 16 16 17 18 18 18 18 19 18 19 19 19 19 19 19 19 18 18 18 19 20 19 19 19 20 21 21 22
15 16 16 16 16 17 17 17 17 18 18 18 18 18 18 17 17 18 18 19 19 19 20 20 20 20 20 20 20 20 20 20 20 20 20 20 20 20 20 21 22 22 22
16 16 17 17 18 18 18 18 18 19 18 18 18 19 19 19 19 19 19 20 20 21 21 21 22 22 21 21 21 21 21 22 22 21 21 22 22 22 22 22 23 23 23
17 17 18 18 19 19 20 19 20 20 19 19 19 19 20 21 20 20 20 21 21 22 22 22 23 22 22 22 22 22 22 22 22 22 22 22 22 22 22 22 23 22 23
19 20 20 20 21 22 22 22 22 21 22 20 20 20 20 21 22 22 23 23 24 24 24 24 23 23 23 23 23 23 23 23 23 23 23 22 23 22 22 22 23 23 23
22 22 22 22 22 22 22 23 22 22 22 22 22 21 22 23 24 25 25 25 26 26 27 26 26 26 25 25 25 24 24 24 24 24 24 23 23 23 22 22 23 23 23
23 23 23 23 23 23 23 23 23 24 24 24 24 24 25 26 27 27 27 27 27 27 28 27 27 26 26 25 25 24 24 24 24 24 25 25 24 24 23 23 23 24 23
25 24 24 24 24 24 24 24 24 25 26 26 26 26 26 27 27 28 28 28 28 29 29 28 28 27 26 25 25 25 25 25 25 25 25 25 25 25 24 24 24 25 25
Wind_Direction
84 111 108 103 110 111 109 97 108 138 146 147 200 343 335 298 325 321 298 295 299 298 290 287 289 289 288 284 282 282 280 277 269 265 266 262 257 254 255 259 260 260 259
84 93 91 93 89 94 95 101 108 95 82 68 157 289 293 307 310 308 312 309 309 305 300 293 291 290 286 283 282 283 282 277 271 268 265 264 264 265 262 258 258 261 262
73 69 63 54 46 61 87 84 79 60 46 19 354 320 311 309 304 301 303 302 305 305 307 306 297 290 289 289 287 287 285 282 275 272 267 263 262 264 265 265 264 266 264
51 55 50 40 36 45 77 51 55 39 359 351 350 330 318 310 306 306 307 308 309 302 301 303 301 296 294 292 292 288 286 282 277 279 272 264 261 260 262 264 265 267 266
48 54 51 54 55 51 42 33 31 21 343 324 317 316 316 317 317 318 316 311 311 308 305 303 299 297 296 294 292 291 291 286 282 284 278 268 262 262 263 265 267 268 267
48 46 48 51 43 37 33 28 29 13 346 336 328 328 324 325 320 318 316 311 311 312 309 306 305 300 299 297 294 291 292 289 284 282 278 271 269 267 266 267 267 269 267
44 36 41 47 35 22 22 22 16 358 343 340 340 339 335 329 328 325 324 319 316 315 313 310 307 305 302 299 295 292 289 288 282 281 279 276 270 269 269 266 267 270 269
30 27 27 24 20 13 12 5 1 355 344 340 339 335 330 324 321 326 327 326 322 320 319 315 309 307 304 302 298 293 288 284 279 283 281 281 277 273 271 269 268 270 271
13 11 6 359 358 356 355 350 346 343 340 339 340 333 330 326 320 324 322 322 322 323 323 320 314 311 309 309 305 299 293 288 283 285 282 283 283 279 275 273 272 272 274
2 356 349 345 343 341 340 338 337 335 334 332 334 333 330 328 323 320 321 323 321 319 318 316 315 313 312 311 309 304 302 297 293 292 287 285 287 287 284 283 278 276 274
346 339 336 335 333 333 330 328 329 328 328 325 325 326 325 322 321 322 322 322 321 319 316 317 317 313 314 313 312 310 306 300 296 294 292 289 289 288 286 286 285 280 277
332 331 331 330 327 326 323 319 322 324 324 322 320 318 316 316 318 319 321 323 320 318 318 318 316 315 313 312 310 309 308 302 297 298 295 292 291 291 289 288 287 285 282
337 334 338 331 329 330 328 323 320 320 317 315 316 317 314 314 317 318 318 318 316 319 321 321 321 319 318 313 311 311 310 304 298 298 298 296 293 294 291 289 287 284 283
336 340 338 331 327 325 324 323 324 318 314 313 316 319 319 316 316 317 320 321 321 322 323 322 320 317 316 315 311 310 309 306 301 298 297 298 293 291 291 289 287 284 283
332 329 328 326 324 323 322 322 321 319 317 317 320 321 319 318 317 317 318 318 318 318 318 318 318 317 314 312 312 311 309 306 302 302 300 297 294 290 288 288 288 286 284
329 327 324 322 321 320 319 318 320 318 319 318 318 319 318 318 317 316 315 313 313 314 312 312 314 314 312 311 308 307 306 305 303 301 302 300 297 292 288 288 289 288 288
323 323 321 320 319 317 315 315 312 310 311 312 312 313 313 312 313 314 314 312 311 310 308 308 309 310 309 307 306 305 304 305 304 302 301 299 295 293 291 290 288 286 286
318 317 318 318 316 315 315 315 314 310 310 310 309 309 310 309 309 310 310 309 308 309 310 309 306 306 306 305 303 303 302 302 302 299 299 299 297 293 293 290 289 287 286
317 317 319 318 315 312 312 312 311 307 307 308 307 306 307 307 307 308 308 308 307 308 308 308 307 304 303 302 301 303 304 301 299 297 297 299 298 295 294 293 290 290 289
312 313 313 314 313 312 311 311 310 310 307 306 304 302 303 305 306 308 308 308 308 308 309 309 307 306 303 300 300 301 301 300 298 297 295 296 295 295 295 293 291 290 289
310 311 311 312 313 311 310 311 310 309 307 306 303 302 302 305 306 307 307 307 307 307 307 307 307 305 303 302 300 299 299 299 299 297 294 294 293 293 294 293 293 292 290
306 307 309 310 310 309 308 308 307 307 306 305 304 302 303 306 306 306 306 307 307 306 306 306 305 303 302 301 300 299 299 297 297 296 295 294 292 291 292 293 293 292 291
302 302 304 306 305 306 306 304 302 303 303 301 301 302 304 306 305 303 304 305 305 304 304 306 303 301 301 300 299 299 298 297 296 297 295 295 294 292 292 292 294 294 292
301 301 302 305 304 304 305 305 304 303 301 301 301 302 303 303 304 302 304 305 306 306 305 305 304 300 300 299 297 296 296 296 297 297 296 296 295 293 292 292 293 294 293
300 301 301 302 302 302 304 303 303 303 302 300 301 301 301 302 303 302 302 303 304 305 306 304 303 302 300 297 296 297 296 296 296 295 295 294 294 292 293 292 292 292 292
299 300 300 300 300 300 302 302 302 302 300 299 299 299 300 300 301 301 301 301 302 302 303 303 302 300 299 296 295 296 296 295 295 294 293 292 292 292 292 293 293 292 292
Height
5883 5883 5884 5884 5884 5884 5885 5886 5886 5886 5886 5886 5887 5887 5888 5888 5888 5888 5888 5888 5888 5888 5888 5888 5888 5888 5888 5888 5888 5888 5887 5887 5887 5887 5887 5887 5888 5888 5888 5889 5889 5889 5889
5884 5884 5885 5885 5884 5885 5886 5886 5886 5886 5887 5887 5887 5887 5888 5888 5888 5888 5888 5888 5888 5887 5887 5887 5886 5886 5886 5886 5886 5886 5886 5885 5885 5885 5885 5885 5886 5886 5886 5886 5886 5887 5887
5885 5885 5886 5886 5886 5886 5886 5886 5886 5886 5887 5887 5887 5887 5887 5887 5887 5887 5887 5887 5886 5886 5886 5885 5885 5885 5884 5884 5884 5884 5884 5883 5883 5883 5883 5883 5883 5883 5883 5883 5883 5884 5884
5886 5886 5886 5886 5886 5886 5886 5886 5886 5886 5887 5886 5887 5887 5886 5886 5886 5886 5886 5885 5885 5885 5884 5884 5883 5883 5883 5882 5882 5882 5881 5881 5880 5880 5880 5880 5880 5880 5880 5880 5880 5880 5880
5887 5887 5887 5887 5887 5886 5886 5886 5886 5886 5886 5886 5886 5886 5886 5886 5885 5885 5885 5884 5884 5883 5883 5882 5882 5881 5881 5880 5880 5879 5879 5878 5878 5877 5877 5877 5877 5877 5877 5877 5877 5877 5877
5888 5888 5887 5887 5887 5887 5887 5886 5886 5886 5886 5886 5886 5885 5885 5885 5884 5884 5884 5883 5882 5882 5881 5881 5880 5879 5879 5878 5877 5876 5876 5875 5875 5874 5874 5874 5874 5873 5873 5873 5873 5873 5873
5890 5889 5888 5888 5888 5887 5887 5886 5886 5886 5886 5885 5885 5885 5884 5884 5883 5883 5882 5882 5881 5880 5880 5879 5878 5877 5876 5875 5874 5873 5873 5872 5871 5871 5871 5871 5871 5870 5870 5870 5870 5870 5870
5891 5890 5890 5889 5888 5888 5887 5887 5886 5886 5886 5885 5885 5884 5884 5884 5883 5882 5881 5880 5879 5878 5878 5877 5876 5875 5874 5873 5872 5870 5870 5869 5868 5868 5867 5867 5867 5867 5867 5866 5866 5866 5866
5891 5891 5890 5890 5889 5888 5888 5887 5886 5886 5885 5885 5884 5884 5883 5882 5881 5881 5879 5879 5878 5877 5876 5875 5874 5872 5871 5870 5869 5868 5867 5866 5865 5865 5864 5864 5863 5863 5863 5862 5862 5862 5861
5891 5891 5890 5890 5889 5888 5887 5887 5886 5885 5885 5884 5883 5882 5882 5881 5880 5879 5878 5877 5876 5875 5874 5873 5871 5870 5869 5867 5866 5865 5864 5863 5862 5861 5861 5860 5860 5859 5859 5858 5858 5858 5857
5891 5891 5890 5889 5888 5888 5887 5886 5885 5884 5883 5882 5882 5881 5880 5879 5878 5877 5876 5875 5874 5873 5871 5870 5869 5867 5866 5865 5863 5862 5861 5859 5858 5858 5857 5856 5856 5856 5855 5854 5854 5853 5853
5891 5890 5889 5889 5888 5887 5886 5885 5884 5883 5882 5881 5880 5879 5878 5877 5876 5875 5874 5873 5872 5870 5868 5867 5866 5864 5863 5862 5860 5859 5857 5856 5855 5854 5853 5852 5852 5852 5851 5850 5849 5849 5848
5891 5890 5889 5888 5887 5886 5885 5884 5882 5881 5880 5879 5878 5877 5876 5875 5874 5873 5872 5870 5869 5867 5866 5865 5863 5861 5860 5858 5857 5855 5854 5852 5851 5850 5849 5848 5848 5847 5846 5846 5845 5844 5843
5890 5889 5888 5887 5886 5885 5883 5882 5881 5880 5878 5877 5876 5875 5874 5873 5872 5871 5869 5868 5866 5865 5863 5862 5860 5858 5856 5855 5853 5851 5850 5849 5847 5846 5845 5844 5843 5842 5842 5841 5840 5839 5838
5889 5888 5887 5886 5885 5884 5882 5881 5879 5878 5876 5875 5874 5873 5872 5871 5869 5868 5867 5865 5864 5862 5861 5859 5857 5855 5853 5851 5849 5848 5846 5845 5844 5842 5841 5840 5839 5838 5837 5836 5835 5834 5833
5888 5887 5886 5884 5883 5882 5880 5879 5877 5876 5875 5873 5872 5871 5870 5868 5867 5865 5864 5862 5861 5859 5857 5855 5853 5851 5849 5846 5845 5844 5843 5841 5840 5838 5837 5836 5834 5833 5832 5831 5830 5828 5827
5887 5886 5884 5883 5881 5880 5878 5876 5875 5873 5872 5871 5870 5868 5867 5866 5864 5863 5861 5859 5857 5855 5853 5851 5850 5848 5845 5844 5842 5840 5838 5837 5835 5834 5832 5831 5829 5828 5827 5825 5824 5823 5822
5885 5884 5882 5881 5879 5877 5875 5874 5872 5870 5869 5868 5866 5865 5864 5862 5861 5859 5857 5855 5853 5851 5849 5847 5846 5843 5841 5839 5837 5836 5834 5833 5831 5829 5827 5826 5824 5823 5821 5820 5818 5817 5816
5882 5881 5880 5878 5876 5875 5873 5871 5869 5867 5865 5864 5863 5861 5860 5858 5857 5855 5853 5851 5849 5847 5845 5843 5841 5839 5837 5835 5833 5831 5829 5827 5826 5824 5822 5820 5819 5817 5815 5813 5812 5811 5809
5880 5878 5877 5875 5873 5871 5869 5867 5865 5863 5861 5860 5859 5857 5856 5854 5852 5850 5849 5847 5845 5843 5841 5838 5836 5834 5832 5830 5828 5826 5824 5822 5820 5818 5816 5815 5813 5811 5809 5808 5806 5805 5803
5876 5875 5873 5871 5870 5868 5866 5864 5861 5859 5857 5856 5854 5853 5851 5850 5848 5846 5844 5842 5840 5838 5835 5833 5831 5829 5826 5824 5822 5820 5818 5816 5814 5812 5811 5809 5807 5805 5803 5801 5800 5798 5796
5872 5871 5869 5867 5866 5864 5862 5859 5857 5855 5853 5851 5850 5848 5847 5845 5843 5841 5839 5837 5834 5832 5830 5827 5825 5823 5820 5818 5816 5814 5812 5810 5808 5807 5805 5803 5801 5799 5797 5795 5793 5792 5790
5868 5867 5865 5863 5861 5859 5857 5855 5853 5851 5849 5847 5845 5844 5842 5840 5838 5835 5833 5831 5828 5826 5823 5821 5819 5816 5814 5812 5810 5808 5806 5804 5802 5800 5798 5796 5795 5793 5791 5789 5787 5785 5783
5864 5862 5860 5858 5856 5854 5852 5850 5847 5845 5843 5842 5840 5838 5836 5834 5832 5829 5827 5825 5822 5820 5817 5814 5812 5810 5807 5805 5803 5801 5799 5797 5796 5793 5791 5790 5788 5786 5784 5782 5780 5778 5776
5858 5856 5855 5852 5851 5849 5847 5845 5842 5840 5838 5836 5834 5832 5830 5828 5826 5823 5821 5818 5816 5813 5810 5808 5805 5803 5800 5798 5796 5794 5792 5790 5788 5787 5785 5783 5781 5779 5777 5775 5773 5771 5769
5852 5850 5848 5846 5844 5843 5841 5839 5836 5834 5832 5830 5828 5826 5824 5821 5819 5816 5814 5811 5809 5806 5803 5801 5798 5795 5793 5791 5789 5787 5785 5783 5781 5779 5777 5775 5774 5772 5770 5768 5766 5764 5762